Regional Weather Roundup
Issued by NWS Green Bay, WI

Home | Current Version | Previous Version | Graphics & Text | Print | Product List | Glossary Off
Versions: 1 2 3 4 5 6 7 8 9 10 11 12 13 14 15 16 17 18 19 20 21 22 23 24 25 26 27 28 29 30 31 32 33 34 35 36 37 38 39 40 41 42 43 44 45 46 47 48 49 50

000
ASUS43 KGRB 061010
RWRGRB

NORTH-CENTRAL AND NORTHEAST WISCONSIN REGIONAL WEATHER ROUNDUP
NATIONAL WEATHER SERVICE GREEN BAY WI
500 AM CDT WED MAY 06 2015

WIZ005-009-010>012-018-019-061100-
NORTH CENTRAL WISCONSIN

CITY           SKY/WX    TMP DP  RH WIND       PRES   REMARKS
IRONWOOD       PTCLDY    54  27  35 SE3       30.15S
MANITOWISH WTR CLOUDY    51  29  42 SE6       30.19S
ARBOR VITAE    CLOUDY    52  29  40 SE5       30.19S
EAGLE RIVER    CLOUDY    49  28  44 SE3       30.20F
LAND O LAKES   MOCLDY    35  33  92 CALM      30.22S
RHINELANDER    CLOUDY    51  29  42 SE6       30.20F
PHILLIPS       DRIZZLE   49  41  76 SE8       30.17F
ANTIGO         CLOUDY    49  35  58 SE6       30.20F
TOMAHAWK       RAIN      46  42  88 SE3       30.20S
MERRILL        LGT RAIN  47  43  84 CALM      30.21S
$$

WIZ013-073-061100-
NORTHEAST WISCONSIN

CITY           SKY/WX    TMP DP  RH WIND       PRES   REMARKS
IRON MOUNTAIN  MOCLDY    40  34  79 CALM      30.21S
MARINETTE      CLOUDY    46  37  71 CALM      30.21F
OCONTO         CLOUDY    49  43  79 CALM      30.22R
$$

WIZ017-030-035>037-045-061100-
CENTRAL WISCONSIN

CITY           SKY/WX    TMP DP  RH WIND       PRES   REMARKS
MEDFORD        CLOUDY    47  44  90 E6        30.17F
WAUSAU         LGT RAIN  48  44  86 SE7       30.18F
MOSINEE        CLOUDY    45  45 100 E8        30.19F
MARSHFIELD     CLOUDY    51  46  83 SE9       30.17S
WISC RAPIDS    CLOUDY    51  44  77 E7        30.19S
STEVENS POINT  CLOUDY    48  43  83 E5        30.19F
WAUPACA        CLOUDY    54  39  58 CALM      30.20F
SHAWANO        CLOUDY    53  46  78 CALM      30.21F
CLINTONVILLE   CLOUDY    52  41  66 NE3       30.20F
$$

WIZ038-039-048-051-061100-
FOX VALLEY

CITY           SKY/WX    TMP DP  RH WIND       PRES   REMARKS
NWS GREEN BAY  CLOUDY    52  42  69 NE6       30.21S
APPLETON       CLOUDY    52  36  54 E6        30.19F
OSHKOSH        CLOUDY    51  44  77 E5        30.18F
FOND DU LAC    CLOUDY    48  44  86 CALM      30.19S
$$

WIZ022-050-052-061100-
EAST CENTRAL WISCONSIN

CITY           SKY/WX    TMP DP  RH WIND       PRES   REMARKS
STURGEON BAY   CLOUDY    46  34  61 SE3       30.24F
MANITOWOC      CLOUDY    48  42  80 CALM      30.22S
SHEBOYGAN      CLOUDY    46  42  86 E3        30.21S
$$

LMZ563-521-522-541>543-061100-
LAKESHORE

STATION/POSITION TIME  TEMP    WIND        PRES    VSBY  WAVE
                       AIR SEA DIR/SP/G                  HT/PER
                 (UTC) (F)     (DEG/KT/KT) (MB)    (MI)  (FT/S)
SHEBOYGAN LKSHOR 1000   44      30/  5/  5 1023.6S
KEWAUNEE LKSHORE 1000   43      60/  3/  5 1022.5S
NORTHPORT PIER   1000   43     150/  4/  6 1023.4S
SISTER BAY LKSHO 0900   47        CALM       N/A
CHAMBERS ISLAND  1000   45      CALM  /  1 1023.4S
MENOMINEE LKSHOR 1000   49      30/  2/  3 1023.6F
$$


USA.gov is the U.S. government's official web portal to all federal, state and local government web resources and services.